SAUDISAT 4

Satellite information

Favourite Embed

Satellite Type and Status

PAYLOADIN ORBIT

Key statistics

Satellite SAUDISAT 4 at a glance.

Uptime

4199

Days in orbit

Revolutions

≈ 14.8

Per day

Orbit

SSO

Sun Synchronous Orbit

Inclination

97.7

Latest

Satellite identification and parameters

Extended collection of information and parameters for SAUDISAT 4.

Object identification

Identified? True

Debris? False

Object name: SAUDISAT 4

International designator: 2014-033G

Object number (NORAD): 40016

Object ID (CCSDS): 40016

Country: SAUDI ARABIA (SAUD)

Current information (Y/N): Y

RCS size: MEDIUM

Orbital parameters

Period: 97.351 minutes

Inclination: 97.73 deg

SMA: 7010.058 km

Apoapsis: 662.752 km

Periapsis: 601.095 km

RAAN: 138.7535 deg

Eccentricy: 0.00439778

Argument of periapsis: 307.6148 deg

Mean anomaly: 52.1076 deg

Mean motion: 14.79177539 rev/day

Mean motion (dot): 0.00000745 rev/day2

B* drag term: 0.00010576426 1/REarth

Two-line elements (TLE)

Creation date: Dec. 17, 2025, 2:25 a.m.

Reference frame: TEME

Reference center: EARTH

Epoch: Dec. 16, 2025, 11:20 p.m. UTC

TLE line 0: 0 SAUDISAT 4

TLE line 1: 1 40016U 14033G 25350.97243527 .00000745 00000-0 10576-3 0 9994

TLE line 2: 2 40016 97.7300 138.7535 0043978 307.6148 52.1076 14.79177539619135

Live tracking on map

Real-time ground track for satellite SAUDISAT 4.

In-orbit conjunctions

There are no conjunctions computed for SAUDISAT 4, at the moment. Check back to stay up to date, as we update our databases every day.

Go to all conjunctions

Associated space launch

SAUDISAT 4 was lifted into orbit during the mission ‘Dnepr 1 | Multipayload, 37 satellites.’, on board a Dnepr space rocket.

The launch took place on June 19, 2014, 7:11 p.m. from 370/13.

For more information about the launch, click the button.

Launch to space Dnepr 1 | Multipayload, 37 satellites.
Dnepr 1 | Multipayload, 37 satellites.

Agency: N/A

Status: Launch Successful

Launch date: June 19, 2014, 7:11 p.m. UTC

Rocket: Dnepr

Launch pad: 370/13

Location: Dombarovskiy, Russian Federation

...

Latest news about this satellite

There are no fresh news available about this satellite. Check back as we update our databases every day.


Newsletter sign-up

Weekly statistics, charts and insights to help you stay on top of the space industry.